Weather History for Las Vegas, NV

Change the Weather History Date:

Thursday, January 24, 2013

  Actual Average Record
Temperature  
Mean Temperature 53 °F 49 °F  
Max Temperature 56 °F 59 °F 75 °F (1948)
Min Temperature 50 °F 40 °F 15 °F (1937)
Degree Days  
Heating Degree Days 12 16  
Month to date heating degree days 497 399  
Since 1 July heating degree days 1170 1246  
Cooling Degree Days 0 0  
Month to date cooling degree days 0 0  
Year to date cooling degree days 0 0  
Growing Degree Days 2 (Base 50)    
Moisture  
Dew Point 36 °F    
Average Humidity 46    
Maximum Humidity 66    
Minimum Humidity 26    
Precipitation  
Precipitation 0.01 in 0.02 in 0.36 in (1995)
Month to date precipitation 0.01 0.42  
Year to date precipitation 0.01 0.42  
Snow  
Snow 0.00 in 0.00 in 0.00 in (2012)
Month to date snowfall 0.0 0.0  
Since 1 July snowfall T 0.2  
Snow Depth 0.00 in    
Sea Level Pressure  
Sea Level Pressure 30.16 in    
Wind  
Wind Speed 5 mph (SSW)    
Max Wind Speed 12 mph    
Max Gust Speed 13 mph    
Visibility 10 miles    
Events Rain    
T = Trace of Precipitation, MM = Missing Value Source: NWS Daily Summary

Daily Weather History Graph

Daily Weather History Graph

Search for Another Location

Airport:

Trip Planner

Search our weather history database for the weather conditions in past years. The results will help you decide how hot, cold, wet, or windy it might be!

Date:

Astronomy

Jan. 24, 2013 Rise Set
Actual Time 6:46 AM PST 4:59 PM PST
Civil Twilight 6:19 AM PST 5:26 PM PST
Nautical Twilight 5:48 AM PST 5:57 PM PST
Astronomical Twilight 5:17 AM PST 6:28 PM PST
Moon 3:06 PM PST (1/24) 4:46 AM PST (1/24)
Length of Visible Light 11h 07m
Length of Day
10h 12m
Waxing Gibbous, 95% of the Moon is Illuminated
Jan 24
Waxing Gibbous
Jan 26
Full
Feb 3
Last Quarter
Feb 9
New
Feb 17
First Quarter

Hourly Weather History & Observations

Time (PST) Temp. Dew Point Humidity Pressure Visibility Wind Dir Wind Speed Gust Speed Precip Events Conditions
12:56 AM 53.1 °F 19.9 °F 27% 30.09 in 10.0 mi SSW 9.2 mph - N/A   Overcast
1:56 AM 53.1 °F 19.9 °F 27% 30.11 in 10.0 mi SSW 6.9 mph - N/A   Overcast
2:56 AM 53.1 °F 23.0 °F 31% 30.09 in 10.0 mi SW 3.5 mph - N/A   Overcast
3:56 AM 53.1 °F 24.1 °F 32% 30.08 in 10.0 mi South 5.8 mph - N/A   Overcast
4:56 AM 52.0 °F 24.1 °F 34% 30.09 in 10.0 mi SSW 5.8 mph - N/A   Overcast
5:06 AM 51.8 °F 26.6 °F 38% 30.11 in 10.0 mi South 6.9 mph - 0.00 in Rain Light Rain
5:56 AM 52.0 °F 35.1 °F 53% 30.09 in 10.0 mi South 3.5 mph - 0.00 in   Overcast
6:56 AM 51.8 °F 37.4 °F 58% 30.13 in 10.0 mi SSW 9.2 mph - N/A Rain Light Rain
7:56 AM 52.0 °F 41.0 °F 66% 30.14 in 10.0 mi South 10.4 mph - 0.00 in   Overcast
8:56 AM 53.1 °F 37.9 °F 57% 30.16 in 10.0 mi SSW 6.9 mph - N/A   Overcast
9:56 AM 53.1 °F 44.1 °F 71% 30.19 in 10.0 mi SW 3.5 mph - 0.01 in Rain Light Rain
10:56 AM 54.0 °F 37.9 °F 55% 30.19 in 10.0 mi SSE 4.6 mph - 0.00 in   Overcast
11:56 AM 54.0 °F 42.1 °F 64% 30.18 in 10.0 mi South 4.6 mph - 0.00 in Rain Light Rain
12:56 PM 55.0 °F 42.1 °F 62% 30.16 in 10.0 mi South 4.6 mph - 0.00 in Rain Light Rain
1:56 PM 55.0 °F 39.9 °F 57% 30.17 in 10.0 mi SSE 3.5 mph - 0.00 in   Overcast
2:56 PM 55.0 °F 37.9 °F 53% 30.16 in 10.0 mi Calm Calm - N/A   Mostly Cloudy
3:56 PM 53.6 °F 39.2 °F 58% 30.15 in 10.0 mi ENE 3.5 mph - N/A   Mostly Cloudy
4:56 PM 54.0 °F 39.9 °F 59% 30.16 in 10.0 mi Calm Calm - 0.00 in   Mostly Cloudy
5:56 PM 53.1 °F 41.0 °F 64% 30.19 in 10.0 mi SW 6.9 mph - N/A   Overcast
6:56 PM 53.1 °F 39.9 °F 61% 30.20 in 10.0 mi SSW 5.8 mph - N/A   Overcast
7:56 PM 53.1 °F 41.0 °F 64% 30.19 in 10.0 mi South 6.9 mph - N/A   Overcast
8:56 PM 53.1 °F 42.1 °F 66% 30.21 in 10.0 mi SSW 8.1 mph - N/A   Overcast
9:56 PM 53.1 °F 42.1 °F 66% 30.22 in 10.0 mi SSW 8.1 mph - N/A   Overcast
10:56 PM 53.1 °F 42.1 °F 66% 30.22 in 10.0 mi SW 4.6 mph - N/A   Overcast
11:56 PM 52.0 °F 42.1 °F 69% 30.20 in 10.0 mi SSW 4.6 mph - N/A   Overcast